Location: Podia
(1.5569°N, 32.3469°E)
Time: 21:14:46
(UTC+00:00)

NOSS 2-2 (D) - Pass Details

Date: 01 June 2020
Orbit: 480 x 1729 km, 63.3° (Epoch: 17 June)

Event Time Altitude Azimuth Distance (km) Brightness Sun altitude
Rises 17:25:56 0° 206° (SSW) 3,288 7.3 -21.8°
Reaches altitude 10° 17:28:38 10° 207° (SSW) 2,176 6.4 -22.4°
Maximum altitude 17:33:23 76° 292° (WNW) 603 3.5 -23.5°
Drops below altitude 10° 17:37:10 10° 19° (NNE) 1,734 5.9 -24.3°
Sets 17:39:08 0° 20° (NNE) 2,559 6.8 -24.8°
